Regional Weather Roundup
Issued by NWS Green Bay, WI

Home | Current Version | Previous Version | Text Only | Print | Product List | Glossary On
Versions: 1 2 3 4 5 6 7 8 9 10 11 12 13 14 15 16 17 18 19 20 21 22 23 24 25 26 27 28 29 30 31 32 33 34 35 36 37 38 39 40 41 42 43 44 45 46 47 48 49 50
000
ASUS43 KGRB 171111
RWRGRB

NORTH-CENTRAL AND NORTHEAST WISCONSIN REGIONAL WEATHER ROUNDUP
NATIONAL WEATHER SERVICE GREEN BAY WI
600 AM CDT TUE OCT 17 2017

WIZ005-009-010>012-018-019-171200-
NORTH CENTRAL WISCONSIN

CITY           SKY/WX    TMP DP  RH WIND       PRES   REMARKS
IRONWOOD       CLOUDY    45  37  73 SW5       29.95R
MANITOWISH WTR CLOUDY    36  36 100 CALM      29.96S
ARBOR VITAE    CLOUDY    38  37  94 CALM      29.97R
EAGLE RIVER    CLOUDY    37  36  95 CALM      29.96R
LAND O LAKES   CLOUDY    34  33  99 CALM      29.97S
RHINELANDER    CLEAR     39  36  89 W6        29.98R
PHILLIPS       CLEAR     37  37  97 CALM      29.98R
ANTIGO         CLOUDY    40  36  84 W6        29.99S
TOMAHAWK       CLEAR     34  32  94 CALM      29.99R
MERRILL        CLEAR     36  35  93 CALM      30.00R
$$

WIZ013-073-171200-
NORTHEAST WISCONSIN

CITY           SKY/WX    TMP DP  RH WIND       PRES   REMARKS
IRON MOUNTAIN  NOT AVBL
MARINETTE      PTCLDY    48  38  68 W6        29.98R
OCONTO         PTCLDY    49  38  65 SW9       29.98S
$$

WIZ017-030-035>037-045-171200-
CENTRAL WISCONSIN

CITY           SKY/WX    TMP DP  RH WIND       PRES   REMARKS
MEDFORD        CLEAR     43  36  77 SW3       30.00R
WAUSAU         CLOUDY    45  37  73 S5        29.99S
MOSINEE        CLEAR     43  37  81 SW3       30.01S
MARSHFIELD     CLEAR     45  36  70 SW6       30.00S
WISC RAPIDS    CLEAR     45  38  76 SW7       30.03R
STEVENS POINT  CLOUDY    36  36  99 S3        30.02S
WAUPACA        CLEAR     44  38  80 CALM      30.02S
SHAWANO        CLEAR     47  38  72 SW3       29.99S
CLINTONVILLE   CLEAR     43  37  81 SW5       30.01S
WAUTOMA        CLEAR     35  34  96 MISG      30.04S
$$

WIZ038-039-048-051-171200-
FOX VALLEY

CITY           SKY/WX    TMP DP  RH WIND       PRES   REMARKS
NWS GREEN BAY  CLEAR     48  41  76 S6        30.01S
APPLETON       PTCLDY    48  36  61 SW10      30.01S
OSHKOSH        CLEAR     49  39  68 SW10      30.03R
FOND DU LAC    CLEAR     50  37  61 SW16G22   30.04S
$$

WIZ022-050-052-171200-
EAST CENTRAL WISCONSIN

CITY           SKY/WX    TMP DP  RH WIND       PRES   REMARKS
EPHRAIM        FAIR      52  41  66 W12G22    29.96S
WASHINGTON ISL FAIR      53  41  65 W15G22    29.95S
STURGEON BAY   CLEAR     54  40  59 SW15      29.98S
MANITOWOC      CLEAR     54  39  57 W14       30.02S
SHEBOYGAN      CLEAR     53  40  61 SW12      30.04S
$$

LMZ563-521-522-541>543-171200-
LAKESHORE

STATION/POSITION TIME  TEMP    WIND        PRES    VSBY  WAVE
                       AIR SEA DIR/SP/G                  HT/PER
                 (UTC) (F)     (DEG/KT/KT) (MB)    (MI)  (FT/S)
SHEBOYGAN LKSHOR 1100   55     250/ 16/ 19 1016.9F
KEWAUNEE LKSHORE 1048   55     260/ 14/ 20 1015.0R
NORTHPORT PIER   1040   54     250/  9/ 17 1014.2S
N MID LAKE BUOY  1050   58 60  230/ 21/ 25 1014.4R         6/ 7
S GREEN BAY BUOY 1100   55 58  220/ 19/ 23 1014.8
SISTER BAY LKSHO 1019   56     240/ 17/ 21   N/A
MENOMINEE LKSHOR 1048   50     230/ 10/ 12 1014.5R
$$




USA.gov is the U.S. government's official web portal to all federal, state and local government web resources and services.